Regional Weather Roundup
Issued by NWS Northern Indiana

Home | Current Version | Previous Version | Graphics & Text | Print | Product List | Glossary On
Versions: 1 2 3 4 5 6 7 8 9 10 11 12 13 14 15 16 17 18 19 20 21 22 23 24 25 26 27 28 29 30 31 32 33 34 35 36 37 38 39 40 41 42 43 44 45 46 47 48 49 50
000
ASUS43 KIWX 201700
RWRIWX

KIWX WEATHER ROUNDUP
NATIONAL WEATHER SERVICE NORTHERN INDIANA
1200 PM EST MON FEB 20 2017

NOTE: "FAIR" INDICATES FEW OR NO CLOUDS BELOW 12,000 FEET WITH NO
SIGNIFICANT WEATHER AND/OR OBSTRUCTIONS TO VISIBILITY.

* THESE STATIONS ARE NOT UNDER NWS QUALITY CONTROL. THEY ALSO MAY NOT
  REPORT WEATHER SUCH AS PRECIPITATION OR FOG.

INZ001>027-201800-
NORTHERN INDIANA

CITY           SKY/WX    TMP DP  RH WIND       PRES   REMARKS
GARY*          PTSUNNY   61  45  55 SE17      30.12F
MICHIGAN CITY* MOSUNNY   59  45  58 SE9       30.15F
LAPORTE*       MOSUNNY   60  47  63 S15G23    30.16F
KNOX*          MOSUNNY   57  28  33 SE15G21   30.17F
SOUTH BEND     MOSUNNY   60  47  61 SE13      30.19S
GOSHEN         MOSUNNY   59  42  53 SE10      30.19F
WARSAW*        CLOUDY    59  45  58 SE8       30.20S
ANGOLA*        SUNNY     54  39  58 SE8       30.21F
FORT WAYNE     PTSUNNY   57  46  66 E10       30.22F
PERU/GRISSOM   SUNNY     59  50  71 S14       30.18S

$$
INZ028>050-201800-
CENTRAL INDIANA

CITY           SKY/WX    TMP DP  RH WIND       PRES   REMARKS
LAFAYETTE      SUNNY     60  47  61 SE13      30.15F
KOKOMO*        MOSUNNY   58  49  72 SE12      30.21S
MUNCIE*        MOSUNNY   59  45  59 SE10      30.21F
INDIANAPOLIS   CLOUDY    55  46  71 SE9       30.19F

$$
MIZ043>046-050>051-056>058-064>065-071>073-077>080-201800-
SOUTHWEST LOWER MICHIGAN

CITY           SKY/WX    TMP DP  RH WIND       PRES   REMARKS
BATTLE CREEK   CLOUDY    57  35  43 SE9       30.21F
BENTON HARBOR  MOSUNNY   62  44  51 SE14      30.16S
COLDWATER*     MOSUNNY   56  32  39 SE12      30.21F
HILLSDALE*     MOSUNNY   50  34  53 SE12      30.23S
HOLLAND        CLOUDY    55  37  50 E7        30.18S
GRAND RAPIDS   CLOUDY    49  35  58 E14       30.19F
KALAMAZOO      CLOUDY    58  34  40 SE10      30.21S
STURGIS*       MOSUNNY   58  39  48 SE13      30.20S
THREE RIVERS*  FAIR      58  38  46 SE9       30.20S

$$
OHZ001>008-015>018-024>025-201800-
NORTHWEST OHIO

CITY           SKY/WX    TMP DP  RH WIND       PRES   REMARKS
FINDLAY        CLOUDY    57  40  52 E9        30.25R
TOLEDO EXPRESS SUNNY     51  36  56 E12       30.27S
TOLEDO METCALF SUNNY     52  36  54 E13       30.28F
LIMA           SUNNY     61  42  49 SE7       30.23F

$$
AND FOR LAKE MICHIGAN COASTAL AND OPEN LAKE BUOY OBSERVATIONS

STATION/POSITION TEMP    WIND        PRES    VSBY  WAVE
                 AIR SEA DIR/SP/G                  HT/PER
                 (F)     (DEG/KT/KT) (MB)    (MI)  (FT/S)
CALUMET HARBOR    58     140/  8/ 11 1019.5F
MICHIGAN CITY     57     140/ 13/ 17   N/A
BURNS HARBOR      60     170/ 10/ 19 1020.7F

$$
&&




USA.gov is the U.S. government's official web portal to all federal, state and local government web resources and services.